GFSNIL_prec_cloud_021.txt.gz
Cloud_Cover
0 2 1 0 0 0 0 5 23 0 0 72 82 23 22 28 97 100 100 94 84 57
0 0 0 0 0 0 0 0 0 0 10 52 10 29 86 5 100 100 100 100 89 20
0 0 0 0 0 0 0 0 0 0 3 5 7 100 86 22 95 100 100 100 95 16
0 0 0 0 0 0 0 0 0 0 3 5 92 5 98 92 100 100 74 100 100 100
0 0 0 0 0 0 0 0 0 0 4 97 23 99 100 100 100 99 100 82 94 96
0 0 0 0 0 5 0 0 0 0 11 48 7 100 100 100 76 97 77 100 100 97
0 44 0 0 0 0 0 0 0 12 78 27 6 87 100 96 100 98 98 89 100 100
20 23 0 0 0 0 0 0 60 96 21 35 87 69 97 85 100 87 100 100 100 100
67 0 1 3 0 0 0 18 100 100 100 100 100 100 100 100 100 100 100 100 100 100
7 0 33 2 5 2 10 100 100 64 100 100 96 100 100 100 100 100 100 100 100 100
0 0 100 100 5 5 100 100 100 100 100 100 76 100 100 100 100 100 100 100 100 100
0 0 0 5 13 5 5 58 92 100 100 100 100 100 100 100 100 100 100 100 100 100
0 0 4 5 5 5 5 4 74 100 100 95 100 100 100 100 100 100 100 100 100 100
1 5 5 5 5 5 5 12 80 100 97 100 99 100 100 100 100 100 100 100 100 100

GFSNIL_prec_cloud_024.txt.gz
Cloud_Cover
0 0 0 2 0 3 0 0 0 77 10 0 0 54 5 99 98 19 85 86 22 17
0 18 9 0 0 0 0 0 38 1 0 0 5 73 3 27 11 92 100 70 61 18
0 0 0 0 0 0 0 0 0 0 0 0 16 13 35 52 85 100 62 98 38 16
0 0 0 0 0 2 0 0 0 0 0 0 11 39 52 58 96 37 61 84 70 59
0 0 0 0 0 0 0 0 0 0 0 0 38 5 54 94 100 53 66 99 92 71
0 0 0 0 0 0 0 1 0 0 0 8 5 43 96 100 95 76 23 61 99 98
0 0 0 0 0 0 0 0 0 3 1 14 6 81 100 56 100 100 81 86 48 40
0 0 0 0 0 0 0 0 0 25 12 46 31 74 100 97 99 100 100 83 88 60
0 0 0 0 0 0 0 1 95 83 40 66 81 100 100 100 100 100 100 100 100 100
21 0 34 1 2 5 5 89 100 59 96 12 100 100 100 100 100 100 100 100 100 100
18 0 15 4 14 5 57 100 100 100 8 74 100 100 100 100 100 100 100 100 100 100
0 1 53 51 23 5 97 100 100 89 90 78 100 100 100 100 100 100 100 100 100 99
0 0 5 5 5 5 25 18 100 56 100 100 100 100 100 100 100 100 100 100 100 100
3 5 5 6 38 5 5 100 100 51 97 99 100 100 100 100 100 100 100 100 100 100

GFSNIL_prec_cloud_030.txt.gz
Cloud_Cover
4 0 20 17 60 96 98 94 77 58 30 24 35 33 2 0 4 27 53 91 96 100
27 29 36 100 74 81 87 52 45 34 42 32 6 0 4 0 6 32 99 32 99 100
72 66 78 44 36 18 12 15 32 24 11 0 0 0 0 7 81 100 100 55 81 100
36 7 4 11 4 0 0 1 0 0 0 0 0 0 8 13 12 99 90 99 100 100
25 16 4 0 0 0 0 0 0 0 0 0 6 0 2 15 78 98 78 100 100 100
21 5 1 1 0 0 0 0 0 0 1 1 18 12 30 83 40 100 91 100 99 100
6 12 11 0 0 0 0 0 0 1 7 11 11 15 30 80 99 97 95 69 61 94
0 0 0 5 12 20 0 0 25 17 7 7 22 7 86 100 100 77 100 100 94 12
15 46 46 44 71 15 9 47 47 92 30 6 7 100 100 100 99 99 70 43 66 58
36 64 85 63 64 1 9 6 2 0 1 5 93 100 100 100 100 100 100 100 100 58
100 100 100 18 15 15 3 3 5 30 4 28 86 100 100 100 100 100 100 100 98 90
36 35 96 15 18 0 4 0 77 5 7 40 79 100 100 100 100 100 100 100 100 100
62 6 11 27 34 5 5 3 83 42 8 70 100 100 100 100 100 100 100 100 100 98
99 83 97 29 13 5 18 77 5 8 71 98 100 100 100 100 100 100 100 100 100 78

GFSNIL_prec_cloud_033.txt.gz
Cloud_Cover
2 0 15 25 61 76 98 92 94 9 16 30 26 64 7 18 11 2 4 44 100 31
2 15 10 78 20 74 98 94 45 79 37 67 41 37 3 1 0 27 88 100 100 87
99 72 28 85 99 96 41 40 71 31 17 59 36 40 6 0 0 24 22 99 100 68
100 92 100 100 100 78 56 54 33 23 31 28 15 3 1 26 47 23 92 100 84 100
96 100 100 100 95 13 3 0 3 6 2 0 0 10 41 24 45 100 100 98 100 100
100 100 100 40 14 0 0 0 3 0 0 4 55 87 25 97 98 76 46 36 100 95
100 100 60 9 0 0 1 0 0 0 24 52 100 100 29 95 25 100 46 100 100 99
12 12 8 0 0 0 4 0 6 55 100 100 39 51 54 100 100 100 61 100 100 100
5 0 1 5 99 31 3 83 100 100 100 2 79 100 100 100 91 66 96 100 100 100
41 100 100 100 100 18 88 100 100 100 99 23 28 100 100 100 96 100 92 54 96 20
100 91 100 100 92 91 100 14 3 52 11 65 40 100 100 100 99 96 70 44 50 36
86 98 12 96 100 93 26 6 12 90 83 86 60 100 100 100 94 100 98 92 100 100
95 100 86 97 100 100 2 10 88 20 67 66 79 100 100 100 100 100 100 100 95 98
100 88 100 100 72 91 29 68 100 25 90 100 100 100 100 100 100 96 90 100 100 89